Starlink 30568

operational
NORAD ID: 58051 Int'l Des: 2023-158 Owner: SPXS Country: US Constellation: starlink
LEOCIRCULAR

Starlink 30568について

説明を読み込み中...

リアルタイム位置

3D地球を読み込み中...

次回通過

高度履歴

Altitude vs Time

uPlot chart will show altitude changes over time

軌道要素

1 58051U 23158A 25259.68828057 .00000464 00000-0 49409-4 0 9999
2 58051 43.0027 256.0967 0001258 272.5055 87.5643 15.02537547107352
Epoch: Sep 16, 2025 • Age: 29 hours

現在のステータス

高度 559.6 km
速度 7.59 km/s
衛星直下点 26.68°N, 36.38°W
打ち上げ日 Oct 13, 2023
運用期間 1.9 years
タイプ internet

技術仕様

分類 Payload
質量 730.00 kg
乾燥質量 700.00 kg
総質量 730.00 kg
長さ 0.30 m
直径 4.10 m
スパン 29.00 m
形状 Box + pan
製造者 SPXS
バスタイプ Starlink V2M
フェーズステータス In Orbit
所有者/国 SPXS/US

大規模コンステレーション

Loading constellations...